TimePDT,TemperatureF,Dew PointF,Humidity,Sea Level PressureIn,VisibilityMPH,Wind Direction,Wind SpeedMPH,Gust SpeedMPH,PrecipitationIn,Events,Conditions,WindDirDegrees,DateUTC
12:53 AM,48.9,41.0,74,29.99,10.0,Calm,Calm,-,N/A,,Clear,0,2012-10-10 07:53:00
1:53 AM,48.0,37.9,68,29.99,10.0,Calm,Calm,-,N/A,,Clear,0,2012-10-10 08:53:00
2:53 AM,48.0,39.0,71,29.99,10.0,Calm,Calm,-,N/A,,Clear,0,2012-10-10 09:53:00
3:53 AM,44.1,36.0,73,29.99,10.0,SSE,3.5,-,N/A,,Clear,150,2012-10-10 10:53:00
4:53 AM,45.0,37.9,76,29.99,10.0,Calm,Calm,-,N/A,,Clear,0,2012-10-10 11:53:00
5:53 AM,44.1,36.0,73,29.98,10.0,SSE,4.6,-,N/A,,Clear,150,2012-10-10 12:53:00
6:53 AM,42.1,35.1,76,29.99,10.0,SSE,3.5,-,N/A,,Clear,160,2012-10-10 13:53:00
7:53 AM,44.1,37.0,76,29.99,10.0,SE,3.5,-,N/A,,Clear,140,2012-10-10 14:53:00
8:53 AM,51.1,39.9,66,29.99,10.0,SE,3.5,-,N/A,,Clear,140,2012-10-10 15:53:00
9:53 AM,55.9,42.1,60,29.98,10.0,Variable,3.5,-,N/A,,Clear,0,2012-10-10 16:53:00
10:53 AM,61.0,42.1,50,29.96,10.0,Calm,Calm,-,N/A,,Clear,0,2012-10-10 17:53:00
11:53 AM,64.9,43.0,45,29.93,10.0,Variable,4.6,-,N/A,,Clear,0,2012-10-10 18:53:00
12:53 PM,69.1,43.0,39,29.89,10.0,Calm,Calm,-,N/A,,Clear,0,2012-10-10 19:53:00
1:53 PM,73.9,42.1,32,29.85,10.0,Calm,Calm,-,N/A,,Clear,0,2012-10-10 20:53:00
2:53 PM,77.0,45.0,32,29.82,10.0,NNW,11.5,-,N/A,,Clear,340,2012-10-10 21:53:00
3:53 PM,78.1,43.0,29,29.80,10.0,NNW,13.8,-,N/A,,Clear,330,2012-10-10 22:53:00
4:53 PM,75.9,44.1,32,29.79,10.0,NW,19.6,-,N/A,,Clear,320,2012-10-10 23:53:00
5:53 PM,72.0,43.0,35,29.81,10.0,NNW,13.8,-,N/A,,Clear,330,2012-10-11 00:53:00
6:53 PM,68.0,43.0,40,29.81,10.0,NNW,13.8,-,N/A,,Clear,330,2012-10-11 01:53:00
7:53 PM,66.9,43.0,42,29.83,10.0,NW,11.5,18.4,N/A,,Clear,310,2012-10-11 02:53:00
8:53 PM,64.9,43.0,45,29.84,10.0,Calm,Calm,-,N/A,,Clear,0,2012-10-11 03:53:00
9:53 PM,64.0,44.1,48,29.84,10.0,NW,12.7,23.0,N/A,,Clear,310,2012-10-11 04:53:00
10:53 PM,64.0,42.1,45,29.86,10.0,Variable,3.5,-,N/A,,Clear,0,2012-10-11 05:53:00
11:53 PM,62.1,43.0,50,29.87,10.0,West,5.8,-,N/A,,Clear,280,2012-10-11 06:53:00